Wetbulb
54.92 55.45 54.97 54.95 54.88 56.61 55.87 54.94 55.27 54.35 54.97 53.50 54.18 53.57 52.75 52.30 52.29 51.79 51.37 50.02 49.48 50.58 50.36 50.40 50.02 50.80 50.54 50.38 49.94 50.75 50.75 51.22 48.55 48.69 51.20 51.52 51.04 50.75 51.42 51.82 52.53 52.09 52.50
55.14 54.90 54.51 54.95 55.17 56.09 55.80 55.55 54.68 54.80 53.19 52.42 53.12 52.78 52.01 50.85 51.66 51.29 50.06 50.70 50.25 49.70 49.82 49.75 49.58 50.48 50.29 49.64 49.48 49.61 49.41 51.15 50.26 47.14 49.42 49.72 49.07 50.18 50.09 49.64 50.82 51.94 51.61
54.85 54.49 55.25 55.23 54.77 55.48 54.79 54.52 55.81 54.55 54.54 52.98 53.78 52.46 51.14 50.40 50.04 50.34 50.78 50.52 50.19 49.77 49.57 49.26 49.42 49.94 48.43 49.15 48.69 49.10 48.92 50.27 51.00 48.76 48.04 49.70 48.71 48.94 47.69 48.48 48.65 49.17 50.66
54.93 54.64 54.04 54.69 54.71 55.16 54.22 55.48 54.22 54.45 54.61 53.81 53.29 52.61 51.32 49.85 49.37 49.63 50.20 50.38 49.94 49.91 50.24 50.28 49.95 50.00 48.87 48.92 48.39 48.74 48.69 50.36 49.90 48.80 48.17 47.32 47.84 48.27 48.00 46.18 45.76 48.08 47.86
54.19 53.67 54.19 55.71 55.73 54.87 54.94 54.56 55.67 55.27 53.43 53.16 52.60 53.13 51.51 49.10 47.47 47.95 49.01 49.98 50.50 50.07 50.54 50.22 50.47 51.24 51.16 50.37 49.32 48.91 48.38 47.79 48.02 47.66 46.97 46.83 46.18 46.14 45.13 46.24 45.93 47.19 48.24
54.08 53.37 54.63 54.94 54.50 54.20 55.26 55.50 55.49 54.24 53.98 53.65 52.63 52.25 51.35 48.44 46.78 47.35 48.73 50.42 51.14 50.22 49.40 49.63 50.09 50.39 50.12 50.53 49.98 50.54 50.19 47.79 46.49 46.36 46.05 45.69 46.41 46.83 47.32 46.28 45.36 44.58 44.35
54.36 53.43 54.01 54.35 53.86 53.75 54.77 55.73 55.13 54.85 54.66 52.96 52.89 52.16 52.09 49.22 45.81 45.60 47.56 51.18 50.98 50.63 49.97 49.39 49.21 49.26 48.01 48.79 49.64 49.01 48.86 50.06 50.47 48.00 45.77 46.00 45.93 47.12 46.98 46.14 46.24 46.49 44.97
54.24 53.44 53.58 54.25 53.91 54.42 54.77 55.58 55.80 55.11 53.71 53.35 53.03 53.13 51.26 48.39 45.65 44.89 45.55 50.73 51.03 50.91 49.87 48.67 48.73 48.30 46.46 46.12 49.83 48.44 47.11 47.29 47.80 49.31 48.81 48.74 49.41 49.28 49.28 49.20 49.14 49.09 47.75
53.55 53.24 54.13 53.91 53.46 54.74 54.50 55.31 55.93 54.66 53.92 53.26 53.53 52.92 52.27 51.09 45.08 44.63 46.03 50.40 49.89 48.23 50.30 49.26 47.73 47.17 44.83 44.62 48.85 48.43 48.66 49.05 47.52 48.13 47.83 47.53 46.85 47.75 50.21 50.28 48.33 47.54 47.28
53.60 54.08 54.11 54.87 54.82 54.25 55.66 55.65 55.76 54.74 53.18 52.97 52.64 52.64 50.37 51.66 44.44 44.13 45.03 49.11 48.86 48.32 51.02 50.37 46.89 45.87 44.69 44.30 46.78 48.49 46.48 46.60 48.52 48.38 49.27 48.18 47.47 48.77 49.16 50.98 50.33 47.43 47.66
55.10 54.66 54.31 54.56 55.51 53.76 56.28 55.77 55.21 53.72 53.45 53.00 51.94 53.38 52.44 49.87 49.23 44.29 44.08 48.47 47.32 47.37 48.51 48.89 48.91 45.05 44.28 44.03 44.19 45.97 44.89 45.14 47.89 49.22 48.31 48.99 49.84 50.50 51.12 51.87 51.54 50.18 48.47
55.08 54.18 54.05 54.58 54.78 53.12 55.00 55.13 55.35 53.45 53.45 51.75 50.66 50.50 49.33 51.17 46.14 45.18 44.03 44.18 46.13 48.42 48.02 48.43 47.79 43.37 44.25 44.47 46.25 44.35 44.50 45.89 49.21 48.16 47.81 47.86 47.79 47.73 48.74 50.09 50.69 51.33 51.52
54.65 54.11 54.33 54.11 54.79 54.85 55.30 54.23 51.52 50.93 52.92 52.17 50.38 49.38 49.43 50.01 48.78 45.54 44.15 44.26 46.20 47.55 48.13 45.93 44.39 43.10 44.06 46.53 45.53 45.32 46.53 48.77 48.10 47.19 47.15 46.35 47.34 49.27 49.80 50.48 51.39 50.32 49.74
53.32 54.03 54.38 54.00 53.98 54.89 54.91 54.14 52.62 51.25 50.85 49.13 48.19 47.04 46.75 48.15 47.17 47.20 47.16 47.46 46.30 47.00 46.12 46.11 46.90 44.80 44.86 46.02 45.96 46.86 48.29 48.48 47.53 47.09 47.47 48.25 48.10 47.41 47.24 48.25 47.42 48.29 47.62
53.92 53.39 54.09 53.74 53.86 53.82 53.70 52.01 53.28 54.59 50.11 49.23 48.33 48.29 46.70 46.43 44.82 41.81 41.63 44.09 44.59 44.49 43.52 48.14 47.29 46.46 45.23 44.75 44.44 44.42 45.75 46.55 46.51 46.25 47.11 46.87 47.75 47.45 47.48 49.18 48.13 47.06 45.67
53.57 52.39 53.39 52.79 52.51 52.37 52.14 53.22 47.43 44.89 44.02 43.70 42.74 44.56 47.29 42.18 40.80 40.88 40.91 40.75 40.08 39.79 45.02 44.12 45.42 45.51 45.25 44.91 43.93 42.95 43.34 44.43 44.87 46.09 45.88 46.12 45.90 45.88 45.18 46.07 45.73 46.36 45.79
54.81 54.44 53.22 49.62 51.63 52.31 52.12 51.58 50.41 48.04 43.38 43.69 44.05 42.72 42.05 40.96 41.69 41.11 40.81 39.75 41.70 41.55 45.80 45.11 44.51 44.93 44.95 44.77 44.77 43.32 42.49 43.44 45.66 46.44 45.75 45.49 45.64 45.25 43.81 46.02 45.52 45.21 46.09
54.49 48.74 50.91 51.92 52.05 51.20 51.97 51.49 50.67 49.51 49.02 50.06 41.89 44.22 41.04 40.80 41.58 41.37 40.22 41.01 43.83 44.56 43.91 43.23 42.94 44.07 44.22 45.10 45.29 45.84 45.56 44.54 43.68 43.82 44.58 45.10 45.96 44.23 43.94 44.17 45.95 45.37 45.39
54.27 53.30 52.96 53.59 52.07 50.30 51.18 51.21 50.36 50.74 50.49 51.21 49.61 42.62 43.37 40.16 40.35 41.40 41.64 45.55 44.55 43.47 43.72 42.91 45.25 44.64 45.71 44.92 45.98 46.33 45.80 43.45 45.21 44.09 44.02 44.13 45.06 45.83 46.08 46.26 46.67 40.77 41.25
54.39 47.76 47.08 52.05 52.25 51.10 50.93 50.04 49.31 49.76 50.66 49.92 47.59 49.47 48.55 46.65 46.14 45.99 45.82 46.08 45.39 44.91 44.92 44.94 44.99 44.96 45.68 45.46 44.68 43.60 44.36 44.25 44.96 45.84 45.25 45.21 44.71 44.35 44.29 46.02 45.64 46.73 46.92
53.51 53.45 43.87 51.17 51.72 50.40 49.83 50.54 50.65 49.65 49.78 49.68 49.52 44.53 35.67 47.14 45.94 45.75 45.49 45.74 44.83 45.41 44.62 45.06 45.13 44.87 45.48 45.00 45.16 43.98 42.25 43.09 43.78 43.55 44.40 45.63 45.35 45.50 44.04 44.19 46.52 47.64 46.78
53.55 53.02 52.23 51.54 52.01 51.72 50.41 51.38 49.85 49.94 49.82 49.87 47.87 44.84 35.15 46.39 45.25 45.64 45.02 44.96 45.15 45.97 45.57 45.21 44.64 43.87 43.86 44.81 44.66 43.89 42.28 41.31 41.22 41.38 42.52 43.71 44.46 44.49 43.04 42.95 45.55 46.48 46.78
52.92 52.77 52.03 52.21 51.48 46.83 48.91 51.48 50.89 50.59 50.30 50.31 48.77 47.30 47.20 45.81 44.51 44.66 44.61 44.69 44.75 44.26 45.16 45.06 44.32 44.78 45.37 45.23 45.35 44.74 41.28 39.40 38.84 40.18 41.07 41.62 42.37 41.69 41.12 40.22 43.27 45.31 45.37
52.91 52.91 52.07 52.11 52.29 51.63 51.66 51.32 51.04 44.88 48.67 49.47 48.81 47.48 46.37 45.22 45.19 45.22 44.82 44.56 44.69 44.88 44.78 45.35 45.19 45.35 45.26 45.05 44.34 42.76 37.87 35.76 36.25 37.77 37.92 38.56 37.98 39.26 40.64 40.02 40.59 42.88 44.58
51.30 52.57 52.68 52.97 52.48 52.02 51.24 50.77 50.57 49.54 49.41 48.65 47.20 46.18 45.53 45.51 44.71 44.80 45.28 44.94 44.65 44.62 44.62 45.15 45.80 45.67 43.95 41.00 39.65 38.03 32.26 31.45 32.71 31.82 34.68 36.98 38.26 40.24 40.78 39.76 41.24 42.88 45.69
53.34 53.16 52.86 52.67 51.85 51.13 50.43 49.46 49.13 49.37 48.19 47.39 46.87 45.72 45.31 45.02 44.67 44.90 44.80 44.57 44.08 44.29 45.25 45.48 45.48 45.11 43.01 40.09 36.56 32.16 31.59 31.24 32.09 30.93 32.20 33.66 37.47 42.97 41.76 41.14 41.77 42.80 45.54
MSLP
1020.92 1021.16 1021.49 1021.57 1021.60 1021.43 1021.46 1021.37 1021.25 1021.08 1020.71 1020.51 1020.17 1019.84 1019.51 1019.14 1018.88 1018.56 1018.24 1017.95 1017.57 1017.08 1016.78 1016.35 1016.06 1015.63 1015.40 1015.07 1014.68 1014.29 1014.02 1013.76 1013.74 1013.96 1013.87 1013.89 1013.84 1013.79 1013.74 1013.49 1013.28 1013.06 1012.99
1020.82 1021.27 1021.61 1021.65 1021.61 1021.49 1021.36 1021.26 1021.14 1021.10 1020.81 1020.61 1020.31 1019.98 1019.61 1019.33 1019.08 1018.73 1018.42 1017.97 1017.59 1017.22 1016.79 1016.48 1016.14 1015.67 1015.28 1015.14 1014.77 1014.37 1014.10 1013.70 1013.71 1013.95 1014.13 1014.25 1014.38 1014.32 1014.26 1014.16 1014.04 1014.08 1013.94
1020.77 1021.28 1021.72 1021.77 1021.79 1021.66 1021.47 1021.38 1021.20 1021.02 1020.79 1020.48 1020.18 1020.08 1019.85 1019.60 1019.45 1019.06 1018.60 1018.30 1017.87 1017.38 1016.99 1016.59 1016.28 1015.92 1015.56 1015.11 1014.69 1014.33 1013.96 1013.60 1013.52 1013.78 1014.18 1014.58 1014.95 1014.96 1014.87 1014.98 1014.95 1014.89 1014.75
1020.67 1021.00 1021.37 1021.66 1021.92 1021.84 1021.65 1021.42 1021.20 1020.99 1020.71 1020.56 1020.37 1020.19 1020.12 1019.88 1019.78 1019.41 1018.92 1018.39 1017.95 1017.43 1017.04 1016.62 1016.39 1016.18 1015.84 1015.40 1014.89 1014.44 1013.89 1013.39 1013.61 1013.98 1014.37 1014.77 1015.19 1015.36 1015.29 1015.40 1015.53 1015.44 1015.28
1020.85 1021.23 1021.40 1021.44 1021.68 1021.79 1021.68 1021.40 1021.16 1021.01 1021.00 1020.81 1020.51 1020.22 1020.19 1020.01 1020.02 1019.65 1019.14 1018.59 1017.94 1017.52 1017.00 1016.75 1016.50 1016.33 1016.14 1015.86 1015.36 1014.92 1014.43 1014.08 1014.06 1014.36 1014.67 1015.05 1015.40 1015.48 1015.61 1015.72 1015.78 1015.73 1015.71
1020.95 1021.04 1021.19 1021.37 1021.36 1021.46 1021.39 1021.21 1021.01 1021.05 1021.07 1020.92 1020.64 1020.43 1020.43 1020.21 1020.12 1019.63 1019.25 1018.66 1018.21 1017.69 1017.37 1017.02 1016.65 1016.56 1016.40 1016.23 1015.89 1015.43 1015.10 1014.83 1014.80 1014.83 1015.12 1015.26 1015.36 1015.54 1015.70 1015.77 1015.82 1015.77 1015.75
1020.46 1020.81 1020.85 1021.06 1021.04 1021.10 1021.01 1020.90 1020.87 1020.94 1020.92 1020.85 1020.57 1020.49 1020.38 1020.43 1020.18 1019.70 1019.13 1018.67 1018.26 1017.90 1017.61 1017.36 1017.07 1016.94 1016.81 1016.43 1016.23 1015.91 1015.57 1015.33 1015.24 1015.25 1015.36 1015.42 1015.54 1015.60 1015.72 1015.84 1015.79 1015.62 1015.62
1020.07 1020.39 1020.47 1020.66 1020.80 1020.88 1020.64 1020.57 1020.68 1020.84 1020.79 1020.72 1020.49 1020.35 1020.26 1020.38 1020.14 1019.68 1019.16 1018.81 1018.41 1018.02 1018.00 1017.79 1017.42 1017.29 1017.14 1016.76 1016.10 1015.96 1015.92 1015.69 1015.53 1015.39 1015.37 1015.51 1015.58 1015.69 1015.76 1015.73 1015.67 1015.47 1015.64
1019.63 1020.06 1020.24 1020.39 1020.56 1020.56 1020.62 1020.57 1020.59 1020.65 1020.65 1020.44 1020.30 1020.29 1020.24 1020.31 1020.22 1019.77 1019.22 1018.78 1018.60 1018.36 1018.12 1018.15 1017.94 1017.71 1017.52 1016.99 1016.53 1016.17 1015.91 1015.78 1015.70 1015.59 1015.50 1015.57 1015.66 1015.74 1015.71 1015.81 1015.67 1015.55 1015.40
1019.16 1019.88 1020.14 1020.29 1020.45 1020.59 1020.53 1020.55 1020.45 1020.46 1020.46 1020.32 1020.19 1020.07 1020.10 1020.10 1020.19 1019.86 1019.43 1018.64 1018.66 1018.57 1017.99 1018.11 1018.16 1018.09 1017.74 1017.35 1017.00 1016.61 1016.34 1016.28 1015.85 1015.68 1015.79 1015.77 1015.65 1015.55 1015.61 1015.42 1015.40 1015.30 1015.23
1019.03 1019.54 1020.04 1020.34 1020.53 1020.53 1020.46 1020.47 1020.32 1020.30 1020.29 1020.21 1020.12 1019.88 1020.06 1020.14 1020.08 1019.92 1019.67 1019.17 1018.94 1018.79 1018.37 1018.07 1018.20 1018.15 1017.91 1017.53 1017.15 1017.12 1017.05 1016.64 1016.05 1015.70 1015.61 1015.51 1015.42 1015.40 1015.45 1015.38 1015.28 1015.18 1015.14
1019.25 1019.57 1019.94 1020.14 1020.30 1020.38 1020.33 1020.33 1020.13 1020.09 1020.10 1020.06 1019.79 1019.72 1019.78 1019.93 1019.99 1019.93 1019.72 1019.39 1019.01 1018.74 1018.60 1018.39 1018.48 1018.39 1018.06 1017.79 1017.45 1017.20 1016.76 1016.28 1015.89 1015.77 1015.79 1015.76 1015.70 1015.70 1015.66 1015.54 1015.43 1015.25 1015.13
1019.39 1019.92 1020.11 1020.29 1020.29 1020.20 1020.16 1020.16 1020.18 1020.13 1019.92 1019.71 1019.62 1019.68 1019.69 1019.72 1019.91 1019.83 1019.69 1019.43 1019.06 1018.72 1018.89 1018.63 1018.45 1018.40 1018.17 1017.89 1017.66 1017.21 1016.80 1016.43 1016.32 1016.11 1015.97 1016.10 1016.07 1015.87 1015.70 1015.58 1015.42 1015.43 1015.39
1019.57 1019.82 1020.09 1020.17 1020.21 1020.13 1020.04 1020.01 1020.02 1019.92 1019.80 1019.75 1019.69 1019.85 1019.91 1019.85 1020.09 1020.18 1020.03 1019.71 1019.40 1019.10 1018.93 1018.46 1018.30 1018.30 1018.28 1018.01 1017.78 1017.60 1017.29 1016.99 1016.76 1016.62 1016.35 1016.13 1016.04 1015.89 1015.69 1015.70 1015.58 1015.46 1015.60
1019.59 1019.79 1019.92 1019.85 1019.95 1019.80 1019.78 1019.74 1019.49 1019.62 1019.89 1020.10 1020.23 1020.28 1020.36 1020.27 1020.70 1020.70 1020.60 1020.29 1019.98 1019.55 1019.02 1018.39 1018.26 1018.26 1018.06 1017.93 1017.96 1017.91 1017.79 1017.61 1017.22 1016.93 1016.64 1016.42 1016.16 1015.99 1015.83 1015.69 1015.66 1015.58 1015.58
1019.62 1019.67 1019.60 1019.48 1019.35 1019.44 1019.38 1019.42 1019.41 1019.63 1019.90 1020.13 1020.47 1020.61 1020.64 1020.77 1020.84 1020.68 1020.45 1020.15 1019.73 1019.38 1019.05 1018.59 1018.39 1018.36 1018.20 1018.04 1018.08 1018.16 1017.92 1017.78 1017.60 1017.33 1017.07 1016.78 1016.58 1016.39 1016.31 1016.07 1015.91 1015.84 1015.67
1019.30 1019.56 1019.51 1019.30 1019.11 1019.16 1019.17 1019.21 1019.22 1019.42 1019.57 1019.94 1020.25 1020.54 1020.59 1020.53 1020.49 1020.47 1020.32 1019.99 1019.56 1019.30 1018.95 1018.69 1018.50 1018.33 1018.32 1018.22 1018.07 1018.14 1018.11 1017.92 1017.71 1017.46 1017.29 1017.13 1016.97 1016.80 1016.70 1016.43 1016.26 1016.14 1015.91
1019.24 1019.55 1019.47 1019.12 1019.01 1018.97 1019.03 1019.10 1019.02 1019.04 1019.02 1019.13 1020.06 1020.20 1020.22 1020.34 1020.49 1020.38 1020.19 1019.83 1019.40 1019.12 1019.21 1018.96 1018.75 1018.57 1018.34 1018.05 1018.00 1017.81 1017.84 1017.75 1017.77 1017.56 1017.46 1017.27 1017.07 1017.02 1016.89 1016.71 1016.46 1016.32 1016.16
1019.04 1019.19 1019.15 1018.85 1018.93 1019.08 1019.12 1018.95 1018.76 1018.59 1018.55 1018.54 1019.25 1019.88 1019.80 1019.96 1020.25 1020.17 1020.08 1019.86 1019.51 1019.32 1019.13 1019.03 1018.78 1018.44 1018.23 1018.26 1018.03 1017.81 1017.73 1017.64 1017.51 1017.54 1017.48 1017.34 1017.17 1016.99 1016.79 1016.57 1016.43 1016.18 1016.06
1018.88 1019.17 1019.24 1018.99 1018.86 1019.01 1018.85 1018.75 1018.66 1018.39 1018.30 1018.38 1018.69 1018.84 1019.16 1019.08 1019.77 1019.80 1019.76 1019.70 1019.47 1019.28 1019.03 1018.87 1018.87 1018.62 1018.31 1018.27 1018.23 1018.16 1017.81 1017.62 1017.51 1017.32 1017.24 1017.09 1017.16 1017.07 1016.88 1016.58 1016.42 1016.06 1015.78
1018.75 1018.93 1019.15 1019.09 1018.69 1018.79 1018.73 1018.64 1018.55 1018.35 1018.17 1018.07 1018.27 1019.04 1019.33 1019.14 1019.50 1019.64 1019.71 1019.74 1019.54 1019.23 1019.14 1018.90 1018.72 1018.53 1018.23 1018.12 1018.05 1018.22 1018.18 1017.93 1017.64 1017.38 1017.17 1017.10 1017.00 1016.90 1016.99 1016.69 1016.21 1015.69 1015.57
1018.48 1018.52 1018.65 1018.69 1018.47 1018.48 1018.63 1018.62 1018.34 1018.24 1018.02 1017.73 1018.42 1019.03 1019.25 1019.31 1019.50 1019.70 1019.88 1019.76 1019.64 1019.36 1019.12 1018.94 1018.78 1018.56 1018.25 1017.91 1017.93 1018.12 1018.34 1018.41 1018.19 1017.97 1017.57 1017.37 1017.13 1016.92 1017.10 1016.70 1016.11 1015.73 1015.49
1018.30 1018.39 1018.27 1018.18 1018.16 1018.20 1018.50 1018.24 1018.08 1017.97 1017.69 1017.48 1017.98 1018.52 1018.81 1019.47 1019.83 1019.99 1020.06 1019.90 1019.73 1019.48 1019.17 1018.91 1018.67 1018.32 1018.01 1017.73 1017.74 1018.07 1018.45 1018.89 1018.83 1018.38 1018.05 1017.79 1017.42 1017.46 1017.33 1016.97 1016.31 1015.94 1015.58
1017.49 1017.73 1017.70 1017.69 1017.72 1017.81 1017.82 1017.77 1017.60 1017.37 1017.52 1017.61 1018.12 1018.70 1019.27 1019.82 1020.01 1020.07 1020.00 1019.87 1019.70 1019.45 1019.10 1018.70 1018.34 1018.02 1017.75 1017.63 1017.96 1018.34 1019.03 1019.29 1019.11 1018.71 1018.44 1018.16 1017.91 1017.57 1017.22 1016.92 1016.51 1015.99 1015.58
1016.88 1017.14 1017.12 1017.16 1017.23 1017.33 1017.41 1017.46 1017.32 1017.44 1017.56 1018.03 1018.67 1019.29 1019.76 1020.02 1020.09 1020.07 1020.01 1019.86 1019.59 1019.22 1018.92 1018.53 1018.11 1017.85 1017.95 1018.46 1018.81 1019.04 1019.48 1019.46 1019.24 1019.09 1018.63 1017.99 1017.54 1017.06 1016.84 1016.66 1016.18 1015.59 1015.00
1016.59 1016.64 1016.53 1016.70 1016.91 1017.06 1017.19 1017.41 1017.67 1017.81 1018.23 1018.70 1019.11 1019.71 1019.96 1020.00 1020.08 1020.02 1019.99 1019.86 1019.55 1019.01 1018.49 1018.24 1017.96 1017.81 1018.10 1018.79 1019.26 1019.31 1019.33 1019.20 1018.97 1018.85 1018.58 1018.02 1017.17 1016.40 1016.32 1016.15 1015.69 1015.17 1014.55
Wind_Speed
7 5 4 5 5 4 4 5 5 7 6 6 7 7 9 9 9 9 9 8 8 7 8 7 7 6 4 5 5 4 3 2 2 1 2 4 5 7 7 8 9 10 11
6 5 4 3 4 5 4 6 6 5 6 7 6 7 7 8 10 9 8 8 9 8 7 8 7 6 7 4 4 4 4 3 1 3 2 3 6 6 7 8 7 7 8
7 5 4 3 3 5 5 4 4 4 5 5 6 7 8 10 12 12 9 10 11 7 7 6 7 7 8 7 7 5 4 4 3 3 3 2 4 3 7 6 6 7 6
5 5 2 3 2 3 3 3 3 4 5 6 6 6 7 9 10 10 11 9 7 9 6 6 5 5 7 9 7 7 6 1 4 4 4 3 3 3 4 3 4 3 4
5 3 2 1 2 1 2 4 4 4 6 7 7 6 6 7 9 10 9 9 9 8 7 6 5 7 12 12 6 6 7 6 4 5 3 3 2 1 2 1 2 2 2
4 2 2 3 3 2 5 4 5 5 5 5 7 6 5 7 11 13 10 8 9 8 7 7 5 11 10 10 11 14 11 6 6 4 2 3 4 3 3 2 2 0 2
4 2 4 5 3 3 5 3 5 4 5 6 5 4 3 6 11 11 13 6 6 7 8 9 7 7 10 7 6 7 10 10 7 2 3 2 2 2 1 1 1 1 1
5 3 3 4 1 3 5 4 5 5 5 5 6 4 3 4 8 11 13 4 6 7 8 9 8 8 10 10 5 2 3 4 3 2 3 3 3 3 2 1 3 2 2
8 4 2 3 1 4 4 4 4 4 4 6 5 4 4 3 7 11 11 4 6 7 5 6 8 8 12 14 8 5 3 1 3 3 4 3 3 5 4 2 3 3 3
5 4 1 2 1 5 4 4 5 4 4 4 6 5 3 4 6 8 10 6 7 6 4 5 10 8 11 11 7 7 6 7 6 1 3 3 5 6 8 2 0 0 1
5 6 2 2 4 5 4 5 3 4 4 4 5 2 4 3 2 7 8 6 6 5 5 5 5 9 9 10 11 6 4 6 8 4 2 3 3 4 3 3 4 2 0
7 4 1 3 2 3 5 5 5 4 2 4 4 4 3 4 2 5 6 7 6 3 5 5 4 6 7 9 8 10 11 9 3 1 3 3 3 4 3 3 3 4 3
6 3 1 2 3 4 4 4 4 6 4 3 2 2 2 2 4 8 8 9 8 4 4 4 6 8 5 4 9 11 9 4 5 4 3 2 1 2 2 1 3 3 3
5 2 1 2 4 3 2 0 1 2 4 6 4 5 4 3 6 6 6 8 10 7 10 7 4 2 6 2 5 7 6 6 5 4 3 1 2 2 0 1 1 1 1
2 1 3 3 4 3 4 4 3 1 3 3 4 3 4 6 4 2 4 6 6 7 8 4 3 1 2 3 4 4 4 5 5 5 5 4 3 3 2 1 3 2 1
3 3 2 3 4 3 3 3 8 0 5 5 2 3 3 3 4 7 8 10 11 8 3 3 4 4 5 2 3 3 3 4 4 3 3 4 3 3 3 3 1 2 1
2 1 4 6 4 3 3 3 3 3 6 6 6 4 4 6 5 6 9 10 10 9 3 4 5 4 3 4 0 1 3 3 4 2 3 3 3 3 3 4 2 3 4
3 4 4 3 4 3 2 4 3 2 3 4 5 7 10 8 7 8 8 10 4 1 6 4 2 4 5 4 4 1 1 3 2 3 2 3 2 2 2 3 3 2 4
5 3 3 2 1 5 3 3 5 4 3 2 6 5 8 8 8 8 5 4 5 4 2 4 5 3 2 5 5 4 1 3 1 1 2 2 3 3 3 3 4 4 3
3 1 3 4 1 2 4 4 5 3 1 1 4 2 2 2 1 5 3 4 5 5 5 4 5 5 4 2 3 5 6 4 4 3 0 1 1 2 4 4 4 5 4
2 3 4 6 3 2 4 3 4 5 7 7 5 5 1 4 5 4 4 3 4 5 6 5 6 6 3 3 4 3 5 7 5 4 2 1 3 2 3 4 5 7 4
2 3 4 6 5 4 4 2 2 4 6 4 7 5 4 2 5 5 4 4 5 5 4 4 4 4 4 3 1 3 4 5 5 7 7 6 3 4 4 5 6 4 2
4 5 6 5 4 4 3 4 3 6 5 4 5 3 5 7 4 5 4 3 3 4 3 4 5 6 4 3 3 5 5 5 6 6 6 6 6 5 5 5 6 6 3
7 7 6 6 3 2 2 4 5 5 4 6 7 7 7 6 4 4 3 3 4 4 4 5 6 7 4 3 5 6 6 5 5 6 9 6 5 6 4 5 6 7 6
8 6 3 3 3 4 4 3 5 7 7 8 7 7 5 4 4 4 4 4 4 5 6 7 6 5 10 13 10 9 5 4 6 5 6 8 9 10 2 5 7 7 9
3 2 4 3 1 5 5 5 6 6 8 7 7 6 4 5 4 5 5 6 6 7 6 4 4 7 11 10 9 5 4 5 6 6 6 7 8 5 2 6 10 7 7
Wind_Direction
100 85 59 44 359 17 26 360 18 357 355 341 353 353 354 2 11 2 1 2 343 345 353 354 353 322 12 345 337 333 296 254 262 74 40 27 48 63 55 54 52 55 59
102 84 76 57 351 360 17 9 28 347 336 342 356 1 355 2 2 359 352 349 351 0 343 348 359 353 1 336 327 333 323 305 204 133 79 64 52 52 55 50 48 57 61
103 106 68 27 0 345 37 20 5 345 347 358 10 4 13 16 10 350 354 352 346 359 344 351 359 7 7 357 353 343 320 294 149 136 111 81 68 57 68 48 50 54 56
110 112 133 54 350 310 18 344 347 337 339 12 9 8 7 20 12 349 341 338 346 340 351 356 14 13 18 4 353 352 342 345 112 103 93 99 92 52 62 76 63 36 46
102 124 93 199 228 316 313 328 314 12 16 358 343 43 19 21 7 342 342 328 333 349 357 3 9 41 37 26 9 9 11 29 63 88 83 98 99 122 94 87 91 113 88
147 195 167 226 174 212 280 295 332 40 6 351 342 41 35 18 345 344 357 324 340 358 4 11 23 36 34 13 30 44 46 33 48 63 52 67 61 82 119 118 118 87 80
168 210 215 190 179 210 284 333 341 12 8 350 333 35 17 29 350 343 347 343 334 11 11 20 16 39 17 2 2 47 53 55 63 95 91 74 71 44 81 122 282 315 115
158 216 206 176 174 282 274 29 351 338 356 323 328 0 28 53 345 348 340 354 353 22 27 16 8 39 8 357 358 86 74 39 46 72 113 147 108 169 264 263 280 231 130
160 179 270 151 219 279 320 358 331 331 324 320 335 358 45 59 346 355 348 13 16 355 50 31 15 21 356 358 354 348 59 73 130 110 126 153 178 200 225 244 249 214 216
122 153 106 41 275 309 344 335 330 330 327 311 318 338 75 52 22 351 352 352 25 350 46 33 45 21 353 355 350 1 19 4 347 178 192 205 211 204 224 263 317 347 315
142 110 126 355 358 329 322 305 308 360 340 333 325 16 106 41 47 346 338 358 2 339 341 27 30 359 354 356 358 23 348 304 317 316 73 34 34 76 85 43 21 42 184
96 101 86 343 299 306 301 326 315 293 354 325 334 27 75 105 345 358 346 357 352 4 2 14 23 356 3 9 2 337 327 313 333 47 61 45 38 45 23 30 30 30 22
108 123 313 319 304 279 281 298 336 337 343 263 73 40 28 31 18 22 16 357 345 4 16 337 319 309 343 40 6 350 348 347 22 21 39 82 345 350 275 205 133 130 46
119 135 302 290 285 295 307 24 319 302 336 348 357 37 12 16 33 12 356 350 3 6 350 313 256 307 310 65 34 10 359 10 12 1 4 38 202 298 35 349 262 207 165
138 204 247 235 231 268 248 261 321 133 53 356 8 12 357 5 16 351 330 332 337 328 319 342 19 291 59 51 28 16 8 4 4 353 351 350 360 354 316 344 3 360 18
214 233 251 259 242 271 254 195 257 117 137 126 187 33 33 87 342 339 327 318 317 308 316 333 21 11 3 15 65 356 345 358 345 332 344 336 341 4 359 359 307 320 297
185 273 266 253 287 61 353 336 341 233 186 178 179 173 223 274 288 310 313 320 311 325 345 9 2 9 359 354 82 116 339 332 326 333 342 337 342 16 334 325 6 341 324
174 256 281 293 20 315 45 342 303 280 289 182 189 212 229 244 261 280 312 323 343 48 8 2 2 339 338 339 345 3 229 280 299 318 349 326 301 289 300 299 289 237 277
179 249 256 282 316 8 316 300 298 287 309 24 144 220 234 224 244 262 298 305 340 343 37 338 341 301 325 352 346 335 21 3 277 233 304 302 325 319 304 268 285 270 290
189 226 306 302 22 290 280 336 334 345 280 345 184 180 61 114 184 15 24 343 332 343 350 0 357 345 345 40 16 357 346 344 349 301 181 254 267 314 313 307 297 279 272
237 192 254 287 263 273 308 294 304 347 333 335 97 81 15 22 32 7 347 1 340 345 342 348 349 333 349 329 2 25 353 340 350 329 360 38 317 351 324 299 288 274 252
254 254 211 244 278 270 261 128 302 313 297 302 133 158 221 6 44 29 12 4 351 344 332 332 346 327 303 309 39 27 12 6 10 352 352 338 336 317 335 311 304 348 332
208 232 247 263 258 278 233 234 254 273 300 352 130 129 67 49 37 30 351 1 343 320 346 339 326 316 326 328 90 61 51 12 351 334 319 330 338 333 332 314 315 316 309
220 216 240 259 200 253 209 257 230 257 259 70 54 44 46 38 17 3 325 3 339 338 322 314 308 303 298 17 58 85 47 13 336 324 340 306 301 293 279 301 289 288 288
260 198 211 206 257 250 248 247 12 11 25 54 51 44 32 26 15 360 20 355 331 317 319 309 309 359 59 61 46 30 61 14 334 319 308 307 291 284 251 283 281 276 273
79 239 229 185 92 24 30 28 22 34 39 23 45 47 6 17 3 11 7 337 318 302 303 301 350 2 92 61 37 61 43 344 328 316 306 290 284 286 270 286 300 293 290